STARLINK-35975 (66525 NORAD) Tracking and Keplerian Element Data

This shows tracking and keplerian element data for the satellite.

Feedback or suggestion? Click here.




ElementValue
Catalog66525
NameSTARLINK-35975
Epoch Orbit489
Epoch Day354.09916196
Epoch Year2025
RAAN11.533
Inclination42.9999
Eccentricity1.44E-05
Argument of Perigee9.5466
Mean Anonmoly350.5394
Mean Motion15.40728155
Decay Rate0.00039819
L11 66525U 25265K 25354.09916196 .00039819 00000+0 95462-3 0 9992
L22 66525 42.9999 11.5330 0000144 9.5466 350.5394 15.40728155 4898



Live tracking and technical data element details for STARLINK-35975 (NORAD 66525). STARLINK-35975 can be tracked NOW for your location showing map with azimuth and elevation plus other details from your city location.







IsCatalogInMostPopularTable: catalog: 66525, numindb: 8
Update: records affected: 1



GetName: 66525 STARLINK-35975

Hit Count: updated at: Tue, 21 Apr 2026 19:01:43 GMT